www.pogodaiklimat.ru

Погода и климат >> Архив погоды >> Россия >> Краснодарский край >> Имеретинка


ПОГОДА в Имеретинке

  • Прогноз погоды в Имеретинке
  • Монитор погоды в Имеретинке

АРХИВ ПОГОДЫ в Имеретинке

Время (UTC), дата Ветер
(напр.,м/с)
 
Видим.   Явления Облачность Т
(С)
Тd
(С)
f
(%)
Тe
(С)
Тes
(С)
Комфортность P
(гПа)
Po
(гПа)
Тmin
(С)
Tmax
(С)
R
(мм)
R24
(мм)
S
(см)
00 14.01 С 1 н/о н/о +5.6 +5.6 100 +4 +4 1007.2 1007.1
03 14.01 С 1 н/о н/о +5.0 +5.0 100 +3 +3 1006.0 1005.9 +5.0 6
09 14.01 В 2 н/о н/о +9.0 +7.8 92 +7 +7 1005.0 1004.9
03 15.01 В 4
{12}
н/о н/о +10.2 +4.1 66 +8 +8 1002.0 1001.9 +10.2
06 15.01 В 8-14
{15}
н/о н/о +10.6 +4.7 67 +7 +7 1005.7 1005.6 +9.8
09 15.01 В 6-12
{16}
н/о н/о +12.3 +4.5 59 +10 +10 1005.4 1005.3
12 15.01 В 7-12
{14}
н/о н/о +14.5 +3.0 46 +13 +13 1003.1 1003.0
15 15.01 В 7-12
{14}
н/о н/о +15.4 +1.9 40 +14 +14 1002.2 1002.1 +15.0
18 15.01 В 11-19
{19}
н/о н/о +13.7 +6.1 60 +11 +11 999.6 999.5
21 15.01 В 6-11
{17}
н/о н/о +16.1 +3.9 44 +15 +15 1002.2 1002.1
00 16.01 ЮВ 6-14
{17}
н/о н/о +16.9 +2.9 39 +16 +16 998.4 998.3
03 16.01 ЮВ 5
{14}
н/о н/о +15.0 +5.5 53 +14 +14 995.9 995.8 +11.5 0.6
06 16.01 Ю 1
{15}
н/о н/о +10.6 +8.0 84 +10 +10 995.8 995.7 +10.6
15 16.01 С 1 н/о н/о +4.2 +4.2 100 +3 +3 1005.2 1005.1 +16.7 7
18 16.01 С 1 н/о н/о +2.3 +2.3 100 0 0 1005.2 1005.1
21 16.01 СВ 1 н/о н/о +1.9 -0.0 87 0 0 1008.6 1008.5
00 17.01 СВ 1 н/о н/о +1.2 +0.5 95 -1 -1 1008.8 1008.7
06 17.01 С 1 н/о н/о +0.7 +0.7 100 -2 -2 1012.5 1012.4 +0.5
09 17.01 СЗ 1 н/о н/о +6.2 +0.3 66 +5 +5 1015.9 1015.8
12 17.01 ЮЗ 2 н/о н/о +7.4 +2.7 72 +6 +6 1016.2 1016.1
15 17.01 С 1 н/о н/о +3.1 +2.7 97 +1 +1 1008.3 1008.2 +7.7
18 17.01 С 1 н/о н/о +1.2 +0.6 96 -1 -1 1020.2 1020.1
21 17.01 штиль 0 н/о н/о +0.1 -0.2 98 -1 -1 1021.8 1021.7
00 18.01 С 1 н/о н/о +0.8 -1.8 83 -1 -1 1022.7 1022.6
03 18.01 С 1 н/о н/о +0.3 -2.2 83 -2 -2 1022.9 1022.8 0.0
06 18.01 СВ 1 н/о н/о +1.7 -2.8 72 0 0 1024.0 1023.9 0.0
09 18.01 ЮВ 3 н/о н/о +7.7 +0.9 62 +5 +5 1024.6 1024.5
12 18.01 ЮВ 3 н/о н/о +8.3 +1.2 61 +6 +6 1023.4 1023.3
15 18.01 В 2 н/о н/о +6.4 +2.3 75 +4 +4 1018.5 1018.4 +8.5
18 18.01 С 1 н/о н/о +1.5 +1.5 100 -1 -1 1023.0 1022.9
21 18.01 СЗ 1 н/о н/о +0.8 -0.1 94 -1 -1 1022.6 1022.5
00 19.01 СЗ 1 н/о н/о +1.2 -0.9 86 -1 -1 1021.8 1021.7
03 19.01 С 1 н/о н/о +0.4 -0.9 91 -2 -2 1021.2 1021.1 +0.4
06 19.01 С 1 н/о н/о +2.1 -1.5 77 +1 +1 1021.6 1021.5 +0.2
09 19.01 Ю 1 н/о н/о +9.7 +1.6 57 +10 +10 1022.1 1022.0
12 19.01 Ю 1 н/о н/о +8.7 +1.8 62 +8 +8 1021.8 1021.7
15 19.01 В 1 н/о н/о +5.5 +3.8 89 +4 +4 1016.6 1016.5 +10.2
18 19.01 штиль 0 н/о н/о +3.4 +2.7 95 +2 +2 1016.5 1016.4
00 20.01 штиль 0 н/о н/о +5.9 +2.2 77 +5 +5 1023.9 1023.8

 

Местоположение метеостанции Имеретинка (Краснодарский край, Россия): широта 43.40 долгота 39.95 высота над уровнем моря 2 м.

В архиве по умолчанию представлена погода в Имеретинке за последнюю неделю. Архивные данные за месяц целиком и за предыдущие месяцы, начиная с января 2011 года, Вы можете получить, выбрав интересующий диапазон дат из раскрывающегося списка и нажав кнопку "Ввод!".


*Определитесь, кто Вы:
робот инопланетянин человек

Внимание! Время в таблицах - всемирное. Для получения местного времени необходимо прибавить поправку, которая равна 3 ч.

Смотрите также архив погоды в соседних городах и на ближайших метеорологических станциях:

Погода в Сочи аэропорт (Адлере) (Краснодарский край, Россия) (5 км)
Погода в Сочи (Краснодарский край, Россия) (25 км)
Погода в Кепше (Краснодарский край, Россия) (26 км)
Погода в Красной Поляне (Краснодарский край, Россия) (37 км)
Погода в Горная Карусель 1500 (Краснодарский край, Россия) (39 км)
Погода в Горная Карусель 1000 (Краснодарский край, Россия) (39 км)
Погода на Кордоне Лаура (Краснодарский край, Россия) (44 км)
Погода в Солох Ауле (Краснодарский край, Россия) (51 км)
Погода в Кичмае (Краснодарский край, Россия) (60 км)
Погода в Гузерипле (Адыгея, Россия) (68 км)

Пояснения к столбцам:

Ветер - указаны скорость ветра в м/с - средняя за 10 мин, порывы в срок и между сроками (в фигурных скобках) и направление, откуда дует ветер: С - северный, СВ - северо-восточный, В - восточный, ЮВ - юго-восточный, Ю - южный, ЮЗ - юго-западный, З - западный, СЗ - северо-западный.
Видимость - горизонтальная дальность видимости в метрах или километрах. При видимости от 1 до 10 км при отсутствии осадков обычно наблюдается дымка, при ухудшении видимости до 1 км и менее - туман. В сухую погоду видимость может ухудшаться дымом, пылью или мглою.
Явления - указаны атмосферные явления, наблюдавшиеся в срок или в последний час перед сроком; фигурными скобками обозначены явления, наблюдавшиеся между сроками (за 1-3 часа до срока); квадратными скобками обозначены град или гололедные отложения с указанием их диаметра в мм.
Облачность - указаны через наклонную черту общая и нижняя облачность в баллах и высота нижней границы облаков в метрах; квадратными скобками обозначены формы облаков: Ci - перистые, Cs - перисто-слоистые, Cc - перисто-кучевые, Ac - высококучевые, As - высокослоистые, Sc - слоисто-кучевые, Ns - слоисто-дождевые, Cu - кучевые, Cb - кучево-дождевые. Подробнее классификацию облаков см. в Атласе облаков (PDF).
T - Температура воздуха - температура, измеренная на высоте 2 м над землей.
Td - Температура точки росы - температура, при понижении до которой содержащийся в воздухе водяной пар достигнет насыщения.
f - Относительная влажность воздуха - влажноcть воздуха, измеренная на высоте 2 м над землей.
Te - Эффективная температура - температура, которую ощущает одетый по сезону человек в тени. Характеристика душности погоды. При расчете учитывается влияние влажности воздуха и скорости ветра на теплоощущения человека.
Tes - Эффективная температура на солнце - температура, которую ощущает человек, с поправкой на солнечный нагрев. Характеристика знойности погоды. Зависит от высоты солнца над горизонтом, облачности и скорости ветра. Ночью, в пасмурную погоду, а также при ветре 12 м/с и более поправка равна нулю.
P - Атмосферное давление - приведенное к уровню моря атмосферное давление.
Po - Атмосферное давление - измеренное на уровне метеостанции атмосферное давление.
Tmin - Минимальная температура - минимум температуры воздуха на высоте 2 м над землей.
Tmax - Максимальная температура - максимум температуры воздуха на высоте 2 м над землей.
R - Количество осадков - Количество выпавших осадков за период времени, мм. При наведении курсора мыши на число - период времени, за который выпало указанное количество осадков.
R24 - Количество осадков - Количество выпавших осадков за 24 часа, мм.
S - Снежный покров - Высота снежного покрова, см. При наведении курсора мыши на число - состояние снежного покрова и степень покрытия местности в баллах.